Orbital Elements at Epoch 2459200.5 (2020-Dec-17.0) TDB
Reference: JPL 37 (heliocentric ecliptic J2000)
Element | Value | Uncertainty (1-sigma) | Units |
e | .1485742684572742 | 1.5633e-08 | |
a | 3.165000895364643 | 1.811e-08 | au |
q | 2.694763202669223 | 5.7376e-08 | au |
i | 8.461945402089402 | 3.1822e-07 | deg |
node | 133.0378449480068 | 3.2e-06 | deg |
peri | 76.48713902128426 | 7.509e-06 | deg |
M | 204.5918494968427 | 1.085e-05 | deg |
tp | 2460088.331345243710 (2023-May-23.83134524) | 6.6253e-05 | TDB |
period | 2056.644283153232 5.63 | 1.7652e-05 4.833e-08 | d yr |
n | .1750424236942184 | 1.5024e-09 | deg/d |
Q | 3.635238588060063 | 2.0801e-08 | au |
|
| | Orbit Determination Parameters
Additional Information
|